Hourly Data Report for December 10, 2017

ST. JOHN'S INTL A
NEWFOUNDLAND

47°37'07.000" N
52°45'09.000" W
140.50 m
8403505
71801
YYT

Download Data

Hourly Data (December 2017)
Hourly Data Report for December 10, 2017
TIME
LST
Temp Definition
°C
Dew Point Definition
°C
Rel Hum Definition
%
Precip. Amount Definition
mm

Wind Dir Definition
10's deg

Wind Spd Definition
km/h
Visibility Definition
km
Stn Press Definition
kPa
Hmdx Definition


Wind Chill Definition


Weather Definition


00:30 1.0 0.8 99   14 15 24.1 100.19     Rain
01:30 0.5 0.4 99   13 23 12.9 99.97     Rain
02:30 0.9 0.8 100   13 36 4.8 99.74     Rain, Fog
03:30 1.7 1.6 100   13 31 12.9 99.59     Moderate Rain
04:30 1.6 1.6 100   13 51 2.4 99.42     Moderate Rain, Fog
05:30 1.6 1.6 100   13 42 6.4 99.35     Moderate Rain, Fog
06:30 1.6 1.6 100   13 41 4.8 99.12     Moderate Rain, Fog
07:30 1.9 1.9 100   14 37 2.4 98.86     Rain, Fog
08:30 3.0 3.0 100   14 23 0.4 98.56     Rain, Fog
09:30 6.5 6.5 100   19 18 2.4 98.41     Drizzle, Fog
10:30 16.6 16.3 99   23 55 16.1 98.27     LegendNANA
11:30 17.6 15.4 87   22 57 24.1 98.08     Cloudy
12:30 17.7 15.3 86   22 53 24.1 98.02     LegendNANA
13:30 17.8 15.3 85   22 56 24.1 97.91     LegendNANA
14:30 16.4 15.0 91   22 60 19.3 97.94     Rain Showers
15:30 13.7 12.6 93   24 43 11.3 98.07     Moderate Rain
16:30 13.2 12.5 95   23 32 19.3 98.08     Rain
17:30 12.7 11.7 94   23 32 19.3 98.06     Rain
18:30 12.4 11.2 92   22 37 19.3 98.00     Rain
19:30 10.5 9.1 91   23 46 24.1 97.95     Rain
20:30 9.2 7.8 91   24 47 24.1 97.99     Rain Showers
21:30 6.9 4.9 87   25 56 24.1 98.04     LegendNANA
22:30 5.1 3.8 92   26 55 24.1 98.28     LegendNANA
23:30 3.7 1.7 87   26 52 24.1 98.48     Cloudy

Notes on Data Quality.

Legend

  • E = Estimated
  • M = Missing
  • NA = Not Available*
  • [empty] = Indicates an unobserved value
Date modified: